Showing default

GJZ 04, 62293

Orbit data source: Space-Track

GJZ 04, 62293 is a payload satellite owned by CASC (CN) in LEO that was launched on Thu, 12 Dec 2024 UTC via a CHANG ZHENG 2D/YZ-3 launch vehicle from the Jiuquan Satellite Launch Center, China (JSC). Payload-class satellites include a variety of spacecraft equipped with specific instruments for various scientific and technological missions. These include communications satellites like Starlink; space stations such as the ISS; scientific satellites like the Hubble; Earth observation satellites from companies like Planet Labs, Umbra, and HawkEye 360; GPS; miniature CubeSats for education and research; and military/defense satellites.

Loading next visibility...
Identifier
62293, 2024-238D
Orbit
LEO
Country
Flag of CNCN / PRC
Related business
Manufacturer
HITSAT
Mission
Operational Civil Communications
Bus & Motor
HARBFLAT, Unknown motor
Mass
~150 kg wet, ~150 kg dry
Launch date (UTC)
2024-12-12 (1 year ago)
Launch vehicle
CHANG ZHENG 2D/YZ-3
Launch site
Jiuquan Satellite Launch Center, China (JSC)
Object type
Payload
Rocket body
Debris
Shape & HBR
Box + 2 Pan, 1.5 m
Radar Cross Section
0.240 m², Large (>1 m²)

Expand to show TLE details & history
Last TLE update: 4 hours ago

TLE from 4 hours ago
0 GJZ 04
1 62293U 24238D   26036.31443306  .00000039  00000-0  16434-3 0  9995
2 62293  59.9150 310.1967 0008510 217.0785 142.9636 13.75181094 57770
Epoch: 2026-02-05T07:32Z
TLE epoch observation values (Epoch: 2026-02-05T07:32:47.016Z)
Latitude
0.00001°
Longitude
61.53237°
Altitude
987.515 km
Speed
7.356 km/s
True Right ascension
20h 40m 47s
True Declination
0° 00' 00"
Sunlit
Object was in daylight at epoch
Visualization orbit readout
Latitude
Unknown
Longitude
Unknown
Altitude
Unknown
Speed
Unknown
Apparent Right ascension
Unknown
Apparent Declination
Unknown
Sunlit
N/A
Visualization observer readout
Local Sidereal Time
13:18:55
Azimuth
Unknown
Elevation
Unknown
Doppler factor
Unknown
Orbital elements
Apogee altitude
986.559 km
Perigee altitude
974.035 km
Semi-major axis
7,358.434 km
Eccentricity
0.00085
Inclination
59.915°
RAAN
310.1967°
Arg. of periapsis
217.0785°
True anomaly
143.02229°
Mean anomaly
142.9636°
Eccentric anomaly
142.99295°
Mean motion
3.43847 °/min
Orbital period
104.7 mins
BSTAR
0.00016434
Loading maneuver chart data...
Computing Atmospheric mass density...
Loading historical data...
Loading historical data...
Loading historical data...
Loading historical data...
Loading historical data...
Loading historical data...
Loading historical data...
Other satellites on launch #238 in the year 2024 (2024-12-12 UTC)

Documentation

Showing up to 5 results
|